Location: Newark
(48.3831°N, 4.1956°E)
Time: 05:57:17
(UTC+00:00)

Envisat - Pass Details

Date: 12 November 2019
Orbit: 764 x 766 km, 98.1° (Epoch: 09 December)

Event Time Altitude Azimuth Distance (km) Brightness Sun altitude
Rises 18:15:49 0° 186° (S) 3,220 6.3 -21.1°
Reaches altitude 10° 18:18:15 10° 193° (SSW) 2,299 5.7 -21.5°
Maximum altitude 18:23:00 40° 263° (W) 1,125 4.4 -22.3°
Drops below altitude 10° 18:27:47 10° 333° (NNW) 2,314 5.8 -23.1°
Sets 18:30:15 0° 341° (NNW) 3,245 6.5 -23.5°
